This is the latest recevied weather packets stored in our database for station/object NC4M. If no packets are shown the sender has not sent any weather packets the latest 10 day(s).
| Time | Temp. | Humidity | Pressure | Rain* | Wind** | Luminosity | Snow |
|---|---|---|---|---|---|---|---|
| 1787884584 | 20° C | 89% | 1018.4 hPa | 0 mm | - | 0 W/m² | - |
| 1787884281 | 20° C | 89% | 1018.5 hPa | 0 mm | - | 0 W/m² | - |
| 1787883976 | 20.56° C | 87% | 1018.4 hPa | 0 mm | - | 0 W/m² | - |
| 1787883676 | 20.56° C | 87% | 1018.4 hPa | 0 mm | - | 0 W/m² | - |
| 1787883372 | 20.56° C | 87% | 1018.5 hPa | 0 mm | - | 0 W/m² | - |
| 1787883071 | 20.56° C | 87% | 1018.3 hPa | 0 mm | - | 0 W/m² | - |
| 1787882767 | 20.56° C | 86% | 1018.1 hPa | 0 mm | - | 0 W/m² | - |
| 1787882464 | 20.56° C | 86% | 1018.2 hPa | 0 mm | - | 0 W/m² | - |
| 1787882159 | 20.56° C | 86% | 1018.1 hPa | 0 mm | - | 0 W/m² | - |
| 1787881858 | 21.11° C | 84% | 1018.1 hPa | 0 mm | - | 0 W/m² | - |
| 1787881554 | 21.11° C | 85% | 1018.1 hPa | 0 mm | - | 0 W/m² | - |
| 1787881250 | 21.11° C | 84% | 1017.9 hPa | 0 mm | - | 0 W/m² | - |
| 1787880945 | 21.11° C | 84% | 1018 hPa | 0 mm | - | 0 W/m² | - |
| 1787880645 | 21.67° C | 83% | 1018 hPa | 0 mm | - | 0 W/m² | - |
| 1787880343 | 21.67° C | 83% | 1017.6 hPa | 0 mm | - | 0 W/m² | - |
| 1787880038 | 21.67° C | 83% | 1017.7 hPa | 0 mm | - | 0 W/m² | - |
| 1787879733 | 22.22° C | 81% | 1017.8 hPa | 0 mm | - | 0 W/m² | - |
| 1787879428 | 22.22° C | 81% | 1017.9 hPa | 0 mm | - | 0 W/m² | - |
| 1787879124 | 23.89° C | 71% | 1017.8 hPa | 0 mm | - | 7 W/m² | - |
| 1787878821 | 23.89° C | 71% | 1017.7 hPa | 0 mm | - | 7 W/m² | - |
| 1787878520 | 23.89° C | 71% | 1017.5 hPa | 0 mm | - | 7 W/m² | - |
| 1787878215 | 23.89° C | 71% | 1017.7 hPa | 0 mm | - | 7 W/m² | - |
| 1787877911 | 23.89° C | 71% | 1017.6 hPa | 0 mm | - | 7 W/m² | - |
| 1787877607 | 23.89° C | 71% | 1017.7 hPa | 0 mm | - | 7 W/m² | - |
| 1787877302 | 23.89° C | 71% | 1017.8 hPa | 0 mm | - | 7 W/m² | - |
* Rain latest hour (hover to see other rain measurements)
** Current wind speed in m/s (hover to see current wind gust speed)